Location: Grieser Field
(39.7333°N, 81.7975°W)
Time: 20:50:30
(UTC-04:00)

Meteor 2-1 Rocket - Visible Passes

Search period start: 26 July 2017 00:00
Search period end: 05 August 2017 00:00
Orbit: 829 x 908 km, 81.3° (Epoch: 26 July)

Date Brightness Start Highest point End Pass type
(mag) Time Alt. Az. Time Alt. Az. Time Alt. Az.
01 Aug 4.5 05:52:47 10° S 05:58:36 82° E 06:04:19 10° N visible
02 Aug 4.4 05:46:07 10° S 05:51:55 83° E 05:57:38 10° N visible
03 Aug 4.4 05:39:27 10° S 05:45:15 85° E 05:50:57 10° N visible
04 Aug 4.3 05:32:47 10° S 05:38:34 87° E 05:44:16 10° N visible
